Home   Weather   Brownsville   Past weeks
Flag for USA

Past Weather in Brownsville, Texas, USA — Yesterday and Last 2 Weeks

Now
87 °F

Sunny.


Feels Like: 90 °F
Forecast: 83 / 64 °F
Wind: 3 mph from North

Location: Brownsville / South Padre Island International Airport

Current Time: Oct 13, 2019 at 6:06:19 pm

Latest Report: Oct 13, 2019 at 4:53 pm


Visibility: 10 mi

Pressure: 29.88 "Hg

Humidity: 51%

Dew Point: 67 °F

Location of BrownsvilleLocation

Past Weather in Brownsville — Graph

°F

Brownsville Temperature Yesterday

Maximum temperature yesterday: 73 °F (at 4:53 pm)
Minimum temperature yesterday: 57 °F (at 12:53 am)
Average temperature yesterday: 64 °F

High & Low Weather Summary for the Past Weeks

 TemperatureHumidityPressure
High95 °F (Oct 11, 1:53 pm)94% (Oct 5, 6:53 am)30.16 "Hg (Oct 5, 6:53 am)
Low57 °F (Oct 11, 11:53 pm)38% (Oct 12, 3:53 pm)29.76 "Hg (Oct 10, 5:53 pm)
Average81 °F72%29.92 "Hg
* Reported Sep 28 4:06 pm — Oct 13 4:53 pm, Brownsville. Weather by CustomWeather, © 2019

Note: Actual official high and low records may vary slightly from our data, if they occured in-between our weather recording intervals... More about our weather records

Advertising

Brownsville Weather History for the Previous 24 Hours

Scroll right to see more
 ConditionsComfort  
Time TempWeatherWind HumidityBarometerVisibility
4:53 pm
Sun, Oct 13
87 °FSunny.3 mph51%29.88 "Hg10 mi
3:53 pm85 °FSunny.3 mph55%29.88 "Hg10 mi
2:53 pm85 °FSunny.7 mph53%29.90 "Hg10 mi
1:53 pm84 °FSunny.7 mph55%29.92 "Hg10 mi
12:53 pm81 °FSunny.10 mph51%29.94 "Hg10 mi
12:39 pm80 °FScattered clouds.9 mph49%29.96 "Hg10 mi
11:53 am76 °FOvercast.9 mph50%29.97 "Hg10 mi
10:53 am75 °FOvercast.9 mph54%29.97 "Hg10 mi
10:39 am75 °FMostly cloudy.3 mph54%29.98 "Hg10 mi
10:02 am71 °FMore clouds than sun.10 mph55%29.97 "Hg10 mi
8:53 am69 °FOvercast.13 mph53%29.97 "Hg10 mi
8:24 am68 °FOvercast.10 mph59%29.96 "Hg10 mi
8:06 am68 °FMostly cloudy.10 mph59%29.96 "Hg10 mi
6:53 am68 °FOvercast.10 mph57%29.95 "Hg10 mi
5:53 am69 °FOvercast.13 mph53%29.95 "Hg10 mi
4:53 am69 °FOvercast.10 mph51%29.95 "Hg10 mi
3:53 am69 °FOvercast.10 mph51%29.96 "Hg10 mi
2:53 am69 °FOvercast.9 mph55%29.97 "Hg10 mi
1:53 am69 °FOvercast.9 mph55%29.98 "Hg10 mi
12:53 am69 °FOvercast.8 mph57%29.98 "Hg10 mi
11:53 pm
Sat, Oct 12
68 °FOvercast.8 mph55%30.01 "Hg10 mi
10:53 pm68 °FOvercast.7 mph51%30.03 "Hg10 mi
9:53 pm68 °FMostly cloudy.6 mph45%30.04 "Hg10 mi
8:53 pm68 °FOvercast.9 mph44%30.03 "Hg10 mi
7:53 pm68 °FOvercast.8 mph44%30.03 "Hg10 mi
6:53 pm68 °FOvercast.8 mph42%30.04 "Hg10 mi
Weather by CustomWeather, © 2019

See weather overview